�N����,����,�g�[���i���ԁj���x,�g�[�����x,��g�[���i���ցj���x,����
 2005/02/01, 0:00,16.9,35,5.1,6.4
 2005/02/01, 0:15,17.2,37,5.1,6.3
 2005/02/01, 0:30,13.6,42,5,6.4
 2005/02/01, 0:45,11.6,46,4.9,6.4
 2005/02/01, 1:00,10.6,47,4.8,6.3
 2005/02/01, 1:15,10.2,47,4.8,6.3
 2005/02/01, 1:30,9.7,47,4.8,6.3
 2005/02/01, 1:45,9.2,47,4.7,6.2
 2005/02/01, 2:00,8.9,48,4.7,6.2
 2005/02/01, 2:15,8.6,47,4.6,6.1
 2005/02/01, 2:30,8.3,48,4.5,6.1
 2005/02/01, 2:45,8.2,48,4.5,6
 2005/02/01, 3:00,8,48,4.5,6
 2005/02/01, 3:15,7.8,48,4.4,5.9
 2005/02/01, 3:30,7.7,49,4.5,5.9
 2005/02/01, 3:45,7.5,49,4.4,5.9
 2005/02/01, 4:00,7.4,49,4.4,5.8
 2005/02/01, 4:15,7.1,49,4.4,5.8
 2005/02/01, 4:30,7.1,49,4.3,5.8
 2005/02/01, 4:45,6.9,50,4.4,5.8
 2005/02/01, 5:00,6.8,50,4.3,5.8
 2005/02/01, 5:15,6.8,51,4.2,5.8
 2005/02/01, 5:30,6.6,52,4.1,5.7
 2005/02/01, 5:45,6.6,52,4,5.7
 2005/02/01, 6:00,6.5,52,4,5.7
 2005/02/01, 6:15,6.5,52,4.1,5.7
 2005/02/01, 6:30,12.8,42,4,5.7
 2005/02/01, 6:45,14.2,44,4,5.8
 2005/02/01, 7:00,11.5,48,4.1,5.9
 2005/02/01, 7:15,9.1,51,4,5.8
 2005/02/01, 7:30,8.3,54,4,5.7
 2005/02/01, 7:45,7.8,56,3.9,5.6
 2005/02/01, 8:00,7.5,56,3.9,5.5
 2005/02/01, 8:15,7.4,56,4.1,5.4
 2005/02/01, 8:30,7.8,56,4.3,5.4
 2005/02/01, 8:45,8.1,55,4.6,5.3
 2005/02/01, 9:00,8.2,52,4.8,5.4
 2005/02/01, 9:15,8.2,52,5,5.8
 2005/02/01, 9:30,8.9,50,5.1,5.9
 2005/02/01, 9:45,9.5,47,5.3,6
 2005/02/01,10:00,9.7,44,5.3,5.9
 2005/02/01,10:15,10.2,47,5.4,5.7
 2005/02/01,10:30,10.3,46,5.5,5.6
 2005/02/01,10:45,10.1,46,5.3,5.5
 2005/02/01,11:00,9.8,45,5.4,5.4
 2005/02/01,11:15,10.8,50,5.5,5.4
 2005/02/01,11:30,10.7,50,5.4,5.3
 2005/02/01,11:45,10.7,46,5.6,5.3
 2005/02/01,12:00,10,48,5.5,5.5
 2005/02/01,12:15,9.1,49,5.8,5.5
 2005/02/01,12:30,8.6,48,5.7,5.6
 2005/02/01,12:45,8.6,48,5.5,5.6
 2005/02/01,13:00,8.6,47,5.5,5.6
 2005/02/01,13:15,9.2,46,5.4,5.6
 2005/02/01,13:30,8.9,45,5.5,5.6
 2005/02/01,13:45,9.5,43,5.3,5.6
 2005/02/01,14:00,9.5,41,5.4,5.7
 2005/02/01,14:15,9.1,41,5.3,5.9
 2005/02/01,14:30,8.8,44,5.2,5.8
 2005/02/01,14:45,8.9,44,5,5.6
 2005/02/01,15:00,8.6,39,5.1,5.5
 2005/02/01,15:15,8.6,41,5.2,5.5
 2005/02/01,15:30,8.4,43,5.1,5.4
 2005/02/01,15:45,8.4,42,4.9,5.4
 2005/02/01,16:00,8.4,41,5.2,5.9
 2005/02/01,16:15,8.1,42,5.3,5.9
 2005/02/01,16:30,7.9,45,5.1,5.7
 2005/02/01,16:45,7.8,44,4.9,5.4
 2005/02/01,17:00,7.7,46,4.9,5.3
 2005/02/01,17:15,7.8,47,4.8,5.1
 2005/02/01,17:30,8.3,45,4.7,5
 2005/02/01,17:45,9,44,4.7,5
 2005/02/01,18:00,10.1,55,4.5,4.9
 2005/02/01,18:15,9.6,51,4.4,5.1
 2005/02/01,18:30,9.5,49,4.4,5.1
 2005/02/01,18:45,9.8,51,4.4,5.2
 2005/02/01,19:00,9.4,49,4.2,5.2
 2005/02/01,19:15,9.5,47,4.3,5.1
 2005/02/01,19:30,9.4,41,4.2,5.1
 2005/02/01,19:45,9.1,38,4.1,5.5
 2005/02/01,20:00,10.1,48,3.9,5.4
 2005/02/01,20:15,10.2,48,3.9,5.2
 2005/02/01,20:30,10.5,52,3.8,5.1
 2005/02/01,20:45,10.7,50,3.7,4.9
 2005/02/01,21:00,10,47,3.8,4.8
 2005/02/01,21:15,10,46,3.6,4.7
 2005/02/01,21:30,13.2,38,3.5,4.6
 2005/02/01,21:45,14.5,34,3.4,4.5
 2005/02/01,22:00,11.6,40,3.4,4.4
 2005/02/01,22:15,14.4,32,3.2,4.4
 2005/02/01,22:30,14.8,30,3.3,4.3
 2005/02/01,22:45,15.1,30,3.1,4.3
 2005/02/01,23:00,15.5,30,3,4.3
 2005/02/01,23:15,16.3,29,3,4.3
 2005/02/01,23:30,16.5,28,3,4.2
 2005/02/01,23:45,16.9,27,3,4.2
 2005/02/02, 0:00,14.2,30,2.9,4.2
 2005/02/02, 0:15,11.5,34,2.9,4.2
 2005/02/02, 0:30,9.8,36,2.8,4.2
 2005/02/02, 0:45,8.8,37,2.8,4.1
 2005/02/02, 1:00,8.1,38,2.6,4
 2005/02/02, 1:15,7.6,38,2.6,4
 2005/02/02, 1:30,7.2,39,2.5,3.9
 2005/02/02, 1:45,6.8,40,2.4,3.9
 2005/02/02, 2:00,6.4,40,2.4,3.8
 2005/02/02, 2:15,6.1,40,2.4,3.8
 2005/02/02, 2:30,5.8,40,2.2,3.7
 2005/02/02, 2:45,5.4,40,2.3,3.7
 2005/02/02, 3:00,5.3,41,2.3,3.6
 2005/02/02, 3:15,5,41,2.1,3.6
 2005/02/02, 3:30,4.9,42,2.1,3.5
 2005/02/02, 3:45,4.7,42,2,3.5
 2005/02/02, 4:00,4.6,43,2,3.5
 2005/02/02, 4:15,4.4,43,1.8,3.4
 2005/02/02, 4:30,4.2,43,1.9,3.4
 2005/02/02, 4:45,4.1,44,1.8,3.3
 2005/02/02, 5:00,3.9,44,1.7,3.3
 2005/02/02, 5:15,3.8,45,1.7,3.3
 2005/02/02, 5:30,3.7,47,1.6,3.2
 2005/02/02, 5:45,3.6,48,1.6,3.2
 2005/02/02, 6:00,3.6,50,1.5,3.2
 2005/02/02, 6:15,3.5,52,1.4,3.1
 2005/02/02, 6:30,9.8,43,1.5,3.1
 2005/02/02, 6:45,12.4,40,1.6,3.1
 2005/02/02, 7:00,10.2,42,1.5,3.4
 2005/02/02, 7:15,12.8,45,1.5,3.4
 2005/02/02, 7:30,13.2,36,1.4,3.3
 2005/02/02, 7:45,13.2,32,1.6,3.3
 2005/02/02, 8:00,9.6,37,1.5,3.3
 2005/02/02, 8:15,8.9,43,1.8,3.2
 2005/02/02, 8:30,8.4,46,1.9,3.2
 2005/02/02, 8:45,8.4,47,1.8,3.1
 2005/02/02, 9:00,8.3,48,1.9,3
 2005/02/02, 9:15,8.4,49,2.1,3
 2005/02/02, 9:30,8.4,49,2.2,3
 2005/02/02, 9:45,8.3,49,2.2,3.1
 2005/02/02,10:00,8.3,49,2.2,3.2
 2005/02/02,10:15,8.6,50,2.4,3.4
 2005/02/02,10:30,8.8,51,2.5,3.5
 2005/02/02,10:45,13.6,38,2.8,3.6
 2005/02/02,11:00,13.8,36,2.9,3.7
 2005/02/02,11:15,14,34,3,3.8
 2005/02/02,11:30,14.5,33,3.1,3.9
 2005/02/02,11:45,14.7,32,3.1,4
 2005/02/02,12:00,15,31,3.3,4
 2005/02/02,12:15,14.9,31,3.5,4.1
 2005/02/02,12:30,15.9,31,3.6,4.2
 2005/02/02,12:45,15.8,36,3.8,4.3
 2005/02/02,13:00,13.1,44,3.7,4.4
 2005/02/02,13:15,16.5,35,3.8,5
 2005/02/02,13:30,16.8,35,3.9,5
 2005/02/02,13:45,17,34,3.9,5
 2005/02/02,14:00,16.8,34,3.9,5.1
 2005/02/02,14:15,17.5,33,4,5.1
 2005/02/02,14:30,17.7,36,4,5.2
 2005/02/02,14:45,14.6,41,4.1,5.3
 2005/02/02,15:00,12.4,47,4.3,5.3
 2005/02/02,15:15,11.5,49,4.2,5.3
 2005/02/02,15:30,11.1,50,4.3,5.6
 2005/02/02,15:45,10.7,51,4.3,5.8
 2005/02/02,16:00,10.5,52,4.3,5.8
 2005/02/02,16:15,10,53,4.2,5.7
 2005/02/02,16:30,9.7,54,4.3,5.6
 2005/02/02,16:45,9.7,53,4.2,5.6
 2005/02/02,17:00,9.3,53,4.2,5.5
 2005/02/02,17:15,9.1,53,4.3,5.4
 2005/02/02,17:30,8.8,53,4.2,5.4
 2005/02/02,17:45,8.6,53,4.2,5.4
 2005/02/02,18:00,8.4,54,4.2,5.3
 2005/02/02,18:15,8.4,57,4.3,5.3
 2005/02/02,18:30,7.6,54,4.3,5.1
 2005/02/02,18:45,12.5,40,4.3,5.4
 2005/02/02,19:00,14.4,36,4.4,5.4
 2005/02/02,19:15,15.2,34,4.3,5.4
 2005/02/02,19:30,17.1,33,4.3,5.5
 2005/02/02,19:45,17.2,35,4.3,5.5
 2005/02/02,20:00,18.3,37,4.2,5.5
 2005/02/02,20:15,18.6,39,4.1,5.5
 2005/02/02,20:30,18.3,39,4.2,5.6
 2005/02/02,20:45,18.4,39,4.1,5.6
 2005/02/02,21:00,18.4,38,4.1,6
 2005/02/02,21:15,18.3,38,4.2,6
 2005/02/02,21:30,18.8,37,4.2,5.9
 2005/02/02,21:45,19.2,35,4.1,5.8
 2005/02/02,22:00,15.3,41,4.1,5.8
 2005/02/02,22:15,13.4,47,4.3,5.8
 2005/02/02,22:30,12.7,49,4,5.7
 2005/02/02,22:45,12.2,50,4.1,5.8
 2005/02/02,23:00,11.6,50,4.3,5.8
 2005/02/02,23:15,16.7,38,4.1,5.7
 2005/02/02,23:30,17.4,39,4.1,5.6
 2005/02/02,23:45,12.7,47,4,5.6
 2005/02/03, 0:00,11.6,50,3.9,5.5
 2005/02/03, 0:15,11.1,50,3.9,5.4
 2005/02/03, 0:30,10.4,51,3.9,5.4
 2005/02/03, 0:45,10,52,3.9,5.3
 2005/02/03, 1:00,9.7,52,3.8,5.3
 2005/02/03, 1:15,9.3,52,3.8,5.2
 2005/02/03, 1:30,9.2,52,3.8,5.2
 2005/02/03, 1:45,8.8,53,3.7,5.1
 2005/02/03, 2:00,8.6,53,3.7,5.1
 2005/02/03, 2:15,8.5,53,3.7,5
 2005/02/03, 2:30,8.2,53,3.5,5
 2005/02/03, 2:45,8.1,54,3.6,4.9
 2005/02/03, 3:00,8,54,3.5,4.9
 2005/02/03, 3:15,7.8,54,3.5,4.9
 2005/02/03, 3:30,7.6,54,3.4,4.8
 2005/02/03, 3:45,7.4,55,3.3,4.8
 2005/02/03, 4:00,7.4,54,3.4,4.8
 2005/02/03, 4:15,7.4,54,3.2,4.7
 2005/02/03, 4:30,7.1,55,3.2,4.7
 2005/02/03, 4:45,7.1,55,3.2,4.7
 2005/02/03, 5:00,7,55,3.2,4.7
 2005/02/03, 5:15,6.8,55,3,4.7
 2005/02/03, 5:30,6.8,55,3,4.6
 2005/02/03, 5:45,6.7,55,3,4.6
 2005/02/03, 6:00,6.7,57,3,4.6
 2005/02/03, 6:15,6.5,58,3,4.5
 2005/02/03, 6:30,11.8,45,3,4.5
 2005/02/03, 6:45,12.4,38,2.9,4.5
 2005/02/03, 7:00,11.4,40,3,4.5
 2005/02/03, 7:15,8.6,52,3,4.4
 2005/02/03, 7:30,8.6,61,3,4.3
 2005/02/03, 7:45,11.2,67,3.1,4.5
 2005/02/03, 8:00,11.6,57,3.2,4.4
 2005/02/03, 8:15,11.7,48,3.3,4.4
 2005/02/03, 8:30,12,49,3.7,4.8
 2005/02/03, 8:45,12.3,48,3.8,5.1
 2005/02/03, 9:00,12,51,3.9,5.1
 2005/02/03, 9:15,10.7,54,4.3,5.1
 2005/02/03, 9:30,10.3,49,6.8,5.1
 2005/02/03, 9:45,9.1,51,5.6,5.2
 2005/02/03,10:00,8.6,52,5.3,5.2
 2005/02/03,10:15,8.3,53,5.4,5.3
 2005/02/03,10:30,8.4,54,5.3,5.4
 2005/02/03,10:45,8.8,58,5.2,5.4
 2005/02/03,11:00,8.8,59,5.3,5.5
 2005/02/03,11:15,8.9,58,5.3,5.5
 2005/02/03,11:30,8.8,57,5.4,5.7
 2005/02/03,11:45,8.7,57,5.3,5.8
 2005/02/03,12:00,8.7,57,5.5,5.8
 2005/02/03,12:15,8.8,54,5.5,5.9
 2005/02/03,12:30,8.9,55,5.5,5.9
 2005/02/03,12:45,8.9,56,5.6,6
 2005/02/03,13:00,9.1,55,5.6,6
 2005/02/03,13:15,9,56,5.6,6.1
 2005/02/03,13:30,9,57,5.8,6.1
 2005/02/03,13:45,9.4,57,5.8,6.2
 2005/02/03,14:00,9.5,57,5.8,6.3
 2005/02/03,14:15,9.6,57,5.9,6.4
 2005/02/03,14:30,9.3,58,5.9,6.4
 2005/02/03,14:45,9.2,58,5.9,6.4
 2005/02/03,15:00,9.5,58,5.9,6.5
 2005/02/03,15:15,10.2,55,6,6.6
 2005/02/03,15:30,10.1,56,6.1,6.6
 2005/02/03,15:45,10,55,6.2,6.7
 2005/02/03,16:00,10.4,53,6.3,6.7
 2005/02/03,16:15,11.9,50,6.2,6.7
 2005/02/03,16:30,12.6,49,6.2,6.7
 2005/02/03,16:45,13.4,48,6.1,6.6
 2005/02/03,17:00,13.9,46,6.1,6.6
 2005/02/03,17:15,13.4,47,6,6.6
 2005/02/03,17:30,12.9,49,5.8,6.5
 2005/02/03,17:45,12.8,50,5.8,6.5
 2005/02/03,18:00,13,51,5.7,6.4
 2005/02/03,18:15,13.1,47,5.6,6.2
 2005/02/03,18:30,13.9,47,5.5,6.1
 2005/02/03,18:45,14.1,47,5.4,6
 2005/02/03,19:00,15,48,5.5,6
 2005/02/03,19:15,14.4,49,5.3,6
 2005/02/03,19:30,14.7,48,5.3,6
 2005/02/03,19:45,14.8,47,5.3,6.1
 2005/02/03,20:00,14.5,48,5.3,6
 2005/02/03,20:15,13.3,49,5.3,6.4
 2005/02/03,20:30,12.3,52,5.1,6.3
 2005/02/03,20:45,11.7,54,5.1,6.2
 2005/02/03,21:00,11.5,55,5,6.1
 2005/02/03,21:15,11,56,5,6.1
 2005/02/03,21:30,10.7,57,5,6.1
 2005/02/03,21:45,10.6,57,5.1,6
 2005/02/03,22:00,10.4,57,5.1,6.1
 2005/02/03,22:15,10.3,56,5,6.1
 2005/02/03,22:30,10.2,56,5,6.1
 2005/02/03,22:45,10.2,56,5,6
 2005/02/03,23:00,10.3,56,5,6
 2005/02/03,23:15,10,59,4.9,6
 2005/02/03,23:30,9.7,58,4.8,5.9
 2005/02/03,23:45,9.5,59,4.8,5.9
 2005/02/04, 0:00,9.4,59,4.8,5.9
 2005/02/04, 0:15,9.2,59,4.8,5.9
 2005/02/04, 0:30,14.2,44,4.8,5.9
 2005/02/04, 0:45,14.8,41,4.8,6
 2005/02/04, 1:00,16.6,39,4.8,5.9
 2005/02/04, 1:15,17.1,38,4.8,5.9
 2005/02/04, 1:30,12.2,48,4.8,6
 2005/02/04, 1:45,10.9,51,4.8,6
 2005/02/04, 2:00,10.2,53,4.8,6
 2005/02/04, 2:15,9.8,54,4.6,6
 2005/02/04, 2:30,9.5,55,4.6,6
 2005/02/04, 2:45,9.2,56,4.6,5.9
 2005/02/04, 3:00,8.9,56,4.6,5.9
 2005/02/04, 3:15,8.7,57,4.4,5.8
 2005/02/04, 3:30,8.6,57,4.4,5.8
 2005/02/04, 3:45,8.4,57,4.4,5.7
 2005/02/04, 4:00,8.2,57,4.4,5.7
 2005/02/04, 4:15,8,58,4.4,5.6
 2005/02/04, 4:30,8.1,57,4.4,5.7
 2005/02/04, 4:45,7.8,58,4.4,5.7
 2005/02/04, 5:00,7.8,58,4.4,5.7
 2005/02/04, 5:15,7.7,58,4.4,5.6
 2005/02/04, 5:30,7.5,58,4.3,5.6
 2005/02/04, 5:45,7.6,58,4.4,5.6
 2005/02/04, 6:00,14.4,41,4.3,5.6
 2005/02/04, 6:15,16.2,37,4.3,5.7
 2005/02/04, 6:30,15.9,38,4.2,5.7
 2005/02/04, 6:45,17.6,35,4.3,5.7
 2005/02/04, 7:00,18.7,34,4.2,5.7
 2005/02/04, 7:15,19,33,4.2,5.7
 2005/02/04, 7:30,19.1,34,4.4,5.6
 2005/02/04, 7:45,17.1,38,4.4,5.7
 2005/02/04, 8:00,13,48,4.5,5.7
 2005/02/04, 8:15,12.1,50,4.6,5.7
 2005/02/04, 8:30,11.4,52,4.7,5.8
 2005/02/04, 8:45,10.8,53,4.9,5.8
 2005/02/04, 9:00,10.2,53,4.8,5.9
 2005/02/04, 9:15,9.8,53,4.8,6
 2005/02/04, 9:30,9.9,52,4.8,6
 2005/02/04, 9:45,10.4,51,5.1,5.9
 2005/02/04,10:00,11,50,5.1,5.8
 2005/02/04,10:15,11.1,50,5.2,5.9
 2005/02/04,10:30,11.2,50,5.3,6
 2005/02/04,10:45,11.6,50,5.5,6.1
 2005/02/04,11:00,11.7,49,5.8,6.1
 2005/02/04,11:15,11.8,45,5.7,6.2
 2005/02/04,11:30,11.3,48,5.8,6.2
 2005/02/04,11:45,12.4,54,5.9,6.3
 2005/02/04,12:00,13.2,58,6,6.4
 2005/02/04,12:15,13.1,59,6.2,6.6
 2005/02/04,12:30,13.2,56,6.2,6.7
 2005/02/04,12:45,13.4,54,6.3,6.8
 2005/02/04,13:00,13.4,53,6.5,7.1
 2005/02/04,13:15,13.7,49,6.8,7.4
 2005/02/04,13:30,14,48,6.8,7.5
 2005/02/04,13:45,13.9,49,6.8,7.6
 2005/02/04,14:00,14,50,6.8,7.7
 2005/02/04,14:15,14.4,49,6.8,7.8
 2005/02/04,14:30,15.1,48,6.9,7.9
 2005/02/04,14:45,15.5,47,7.1,8
 2005/02/04,15:00,15.3,47,7.2,8.6
 2005/02/04,15:15,14.3,50,7.3,8.5
 2005/02/04,15:30,14,51,7.2,8.5
 2005/02/04,15:45,13.4,53,7.4,8.5
 2005/02/04,16:00,12.9,52,7.5,8.5
 2005/02/04,16:15,12.8,52,7.4,8.4
 2005/02/04,16:30,12.6,53,7.4,8.7
 2005/02/04,16:45,12.5,53,7.4,8.8
 2005/02/04,17:00,12.4,53,7.4,8.8
 2005/02/04,17:15,12.5,54,7.3,8.7
 2005/02/04,17:30,12.5,54,7.3,8.7
 2005/02/04,17:45,12.4,54,7.3,8.6
 2005/02/04,18:00,12.3,54,7.4,8.6
 2005/02/04,18:15,12.3,54,7.4,8.4
 2005/02/04,18:30,12.3,56,7.3,8.7
 2005/02/04,18:45,12.5,55,6.6,8.6
 2005/02/04,19:00,13.2,54,7.1,8.4
 2005/02/04,19:15,13.4,54,7.1,8.3
 2005/02/04,19:30,12.9,51,7.1,8.2
 2005/02/04,19:45,12.6,49,7.1,8
 2005/02/04,20:00,12.6,49,7.1,7.9
 2005/02/04,20:15,12.8,48,7.1,7.9
 2005/02/04,20:30,13.7,49,7,7.8
 2005/02/04,20:45,14.3,52,7.1,7.9
 2005/02/04,21:00,13.9,51,7.2,7.9
 2005/02/04,21:15,15,54,7.1,8
 2005/02/04,21:30,14.5,54,7.1,8.3
 2005/02/04,21:45,13.7,56,7.1,8.3
 2005/02/04,22:00,13.3,56,7.1,8.4
 2005/02/04,22:15,12.6,56,7,8.3
 2005/02/04,22:30,12.7,56,7,8.3
 2005/02/04,22:45,12.2,55,7.1,8.3
 2005/02/04,23:00,17.4,41,7.1,8.2
 2005/02/04,23:15,18.7,42,7,8.2
 2005/02/04,23:30,18.6,44,7.2,8.2
 2005/02/04,23:45,18.4,44,7.1,8.2
 2005/02/05, 0:00,18.5,45,7.1,8.3
 2005/02/05, 0:15,18.5,46,7.1,8.3
 2005/02/05, 0:30,18.6,44,7.3,8.3
 2005/02/05, 0:45,14.9,51,7.2,8.4
 2005/02/05, 1:00,13.8,53,7.1,8.3
 2005/02/05, 1:15,13.3,54,7.1,8.3
 2005/02/05, 1:30,12.7,55,7.1,8.3
 2005/02/05, 1:45,12.5,55,7.1,8.3
 2005/02/05, 2:00,12.2,56,7,8.3
 2005/02/05, 2:15,12,56,7.1,8.3
 2005/02/05, 2:30,11.7,56,6.9,8.2
 2005/02/05, 2:45,11.5,57,6.9,8.2
 2005/02/05, 3:00,11.3,57,7,8.2
 2005/02/05, 3:15,11.2,57,6.8,8.2
 2005/02/05, 3:30,11,57,6.9,8.2
 2005/02/05, 3:45,10.8,57,6.8,8.2
 2005/02/05, 4:00,10.7,57,6.8,8.1
 2005/02/05, 4:15,10.5,57,6.8,8.1
 2005/02/05, 4:30,10.4,57,6.8,8.1
 2005/02/05, 4:45,10.3,57,6.8,8.1
 2005/02/05, 5:00,10.2,57,6.8,8.1
 2005/02/05, 5:15,10.1,57,6.8,8.1
 2005/02/05, 5:30,10,57,6.8,8
 2005/02/05, 5:45,10,57,6.7,8
 2005/02/05, 6:00,9.8,58,6.6,8
 2005/02/05, 6:15,9.8,58,6.7,8
 2005/02/05, 6:30,9.8,58,6.6,7.9
 2005/02/05, 6:45,9.7,58,6.5,7.9
 2005/02/05, 7:00,10.6,58,6.5,7.8
 2005/02/05, 7:15,16.8,44,6.5,7.8
 2005/02/05, 7:30,18,42,6.6,7.9
 2005/02/05, 7:45,13.8,54,6.6,7.8
 2005/02/05, 8:00,13.8,54,6.6,8
 2005/02/05, 8:15,14.7,53,6.7,8
 2005/02/05, 8:30,15,51,6.7,7.9
 2005/02/05, 8:45,14.8,50,7.1,8.3
 2005/02/05, 9:00,14.8,52,7.2,8.2
 2005/02/05, 9:15,14.9,52,7.4,8.2
 2005/02/05, 9:30,14.5,50,12.5,8.2
 2005/02/05, 9:45,14.1,49,8.4,8.2
 2005/02/05,10:00,13.4,51,8.2,8.1
 2005/02/05,10:15,12.9,53,8,8.1
 2005/02/05,10:30,12.4,55,8.1,8.1
 2005/02/05,10:45,12.3,56,8,8.1
 2005/02/05,11:00,12.3,56,8.1,8.2
 2005/02/05,11:15,13.2,65,8.2,8.3
 2005/02/05,11:30,13.6,59,8.2,8.3
 2005/02/05,11:45,13.8,57,8.1,8.5
 2005/02/05,12:00,13.7,57,8.3,8.5
 2005/02/05,12:15,13.8,59,8.2,8.5
 2005/02/05,12:30,13.6,60,8.3,8.6
 2005/02/05,12:45,13.9,57,8.3,8.6
 2005/02/05,13:00,13.7,50,8.8,8.8
 2005/02/05,13:15,14.5,48,8.7,8.9
 2005/02/05,13:30,14.3,50,8.6,8.9
 2005/02/05,13:45,14,51,8.6,9
 2005/02/05,14:00,13.4,52,8.6,9
 2005/02/05,14:15,13.3,51,8.6,9
 2005/02/05,14:30,13.3,52,8.6,9.1
 2005/02/05,14:45,13.2,53,8.6,9
 2005/02/05,15:00,13.6,53,8.6,9
 2005/02/05,15:15,13.6,53,8.6,9
 2005/02/05,15:30,13.4,54,8.5,8.9
 2005/02/05,15:45,13.4,54,8.4,8.8
 2005/02/05,16:00,13.1,55,7.6,8.7
 2005/02/05,16:15,12.8,51,8.6,9.1
 2005/02/05,16:30,14.6,49,8.3,8.7
 2005/02/05,16:45,14.8,49,8.3,8.6
 2005/02/05,17:00,14.8,50,8.2,8.5
 2005/02/05,17:15,14.8,49,8.1,8.3
 2005/02/05,17:30,14.6,49,8.1,8.2
 2005/02/05,17:45,15.4,54,8.1,8.2
 2005/02/05,18:00,15.1,51,7.9,8.1
 2005/02/05,18:15,15,50,7.8,8
 2005/02/05,18:30,19.1,40,7.8,7.9
 2005/02/05,18:45,16.1,46,7.9,8
 2005/02/05,19:00,16,51,7.7,8.1
 2005/02/05,19:15,15.8,52,7.7,7.9
 2005/02/05,19:30,15.6,52,7.6,7.8
 2005/02/05,19:45,15.4,51,7.5,8
 2005/02/05,20:00,14.5,53,7.6,8.3
 2005/02/05,20:15,13.9,55,7.5,8.3
 2005/02/05,20:30,13.8,56,7.4,8.3
 2005/02/05,20:45,13.4,57,7.5,8.2
 2005/02/05,21:00,13.2,58,7.4,8.2
 2005/02/05,21:15,13.1,58,7.3,8.1
 2005/02/05,21:30,13.3,60,7.3,8.4
 2005/02/05,21:45,13.2,60,7.3,8.4
 2005/02/05,22:00,13.2,59,7.1,8.3
 2005/02/05,22:15,12.9,62,7.1,8.3
 2005/02/05,22:30,12.7,63,7.1,8.3
 2005/02/05,22:45,12.4,62,7.1,8.2
 2005/02/05,23:00,12.1,63,7,8.2
 2005/02/05,23:15,12.1,62,7.1,8.1
 2005/02/05,23:30,11.9,62,6.9,8.1
 2005/02/05,23:45,11.7,62,7,8
 2005/02/06, 0:00,11.7,62,6.8,8
 2005/02/06, 0:15,11.6,62,6.8,7.9
 2005/02/06, 0:30,11.5,62,6.8,7.9
 2005/02/06, 0:45,11.3,62,6.8,7.8
 2005/02/06, 1:00,10.9,59,7.2,7.8
 2005/02/06, 1:15,10.5,59,7.1,7.8
 2005/02/06, 1:30,10.3,59,7.2,7.8
 2005/02/06, 1:45,10.2,59,7.1,7.8
 2005/02/06, 2:00,10,60,7.1,7.8
 2005/02/06, 2:15,9.8,60,7.1,7.7
 2005/02/06, 2:30,9.8,60,7.1,7.7
 2005/02/06, 2:45,9.6,60,7,7.6
 2005/02/06, 3:00,9.5,60,7.1,7.6
 2005/02/06, 3:15,9.3,60,6.9,7.5
 2005/02/06, 3:30,9.2,60,6.8,7.5
 2005/02/06, 3:45,9.2,60,6.8,7.4
 2005/02/06, 4:00,9,60,6.7,7.3
 2005/02/06, 4:15,8.9,60,6.7,7.3
 2005/02/06, 4:30,8.7,60,6.6,7.2
 2005/02/06, 4:45,8.6,60,6.7,7.2
 2005/02/06, 5:00,8.5,60,6.5,7.3
 2005/02/06, 5:15,8.3,60,6.5,7.3
 2005/02/06, 5:30,8.3,60,6.5,7.2
 2005/02/06, 5:45,8.2,60,6.4,7.1
 2005/02/06, 6:00,8.1,60,6.4,7
 2005/02/06, 6:15,8.1,60,6.3,7
 2005/02/06, 6:30,7.8,60,6.3,6.9
 2005/02/06, 6:45,7.9,60,6.3,6.9
 2005/02/06, 7:00,7.8,60,6.2,6.8
 2005/02/06, 7:15,7.6,60,6.2,6.8
 2005/02/06, 7:30,7.7,60,6.2,6.7
 2005/02/06, 7:45,7.6,61,6.2,6.7
 2005/02/06, 8:00,7.5,61,6.1,6.7
 2005/02/06, 8:15,7.4,60,6,6.6
 2005/02/06, 8:30,7.5,60,6.1,6.6
 2005/02/06, 8:45,7.4,61,6.1,6.6
 2005/02/06, 9:00,7.3,61,6,6.6
 2005/02/06, 9:15,7.6,61,6.1,6.9
 2005/02/06, 9:30,7.9,62,6.2,7
 2005/02/06, 9:45,8.1,62,6,7
 2005/02/06,10:00,8,62,6.2,7.1
 2005/02/06,10:15,8.5,63,6.2,7
 2005/02/06,10:30,8.7,64,6.2,7.2
 2005/02/06,10:45,9.4,65,6.2,7.1
 2005/02/06,11:00,9.8,60,6.2,7.1
 2005/02/06,11:15,10.1,55,6.2,7
 2005/02/06,11:30,11.7,60,6.3,6.9
 2005/02/06,11:45,11.9,60,6.4,6.9
 2005/02/06,12:00,12,60,6.3,6.9
 2005/02/06,12:15,12.3,58,6.4,7
 2005/02/06,12:30,12.4,62,6.5,6.9
 2005/02/06,12:45,12.3,62,6.5,6.8
 2005/02/06,13:00,12.5,60,6.5,6.7
 2005/02/06,13:15,12.4,60,6.5,6.6
 2005/02/06,13:30,12.6,59,6.5,6.6
 2005/02/06,13:45,12,59,6.5,7.2
 2005/02/06,14:00,11.5,58,6.5,7.2
 2005/02/06,14:15,11.1,58,6.6,7.2
 2005/02/06,14:30,10.8,60,6.5,7
 2005/02/06,14:45,10.5,60,6.7,7
 2005/02/06,15:00,10.4,60,6.7,7
 2005/02/06,15:15,10.2,61,6.6,6.9
 2005/02/06,15:30,9.9,58,6.9,7
 2005/02/06,15:45,9.8,57,6.8,7
 2005/02/06,16:00,9.8,59,6.8,6.9
 2005/02/06,16:15,9.9,60,6.7,6.9
 2005/02/06,16:30,9.9,60,6.7,6.9
 2005/02/06,16:45,9.9,60,6.6,6.9
 2005/02/06,17:00,10.3,58,6.7,6.8
 2005/02/06,17:15,10.1,60,6.7,6.9
 2005/02/06,17:30,10,60,6.6,6.8
 2005/02/06,17:45,10,60,6.5,6.8
 2005/02/06,18:00,10.2,62,6.5,6.8
 2005/02/06,18:15,10.2,64,6.5,6.8
 2005/02/06,18:30,10.2,65,6.5,6.8
 2005/02/06,18:45,10.3,64,6.4,7
 2005/02/06,19:00,10.8,66,6.5,7.4
 2005/02/06,19:15,11.4,64,6.4,7.2
 2005/02/06,19:30,11.9,62,6.4,7
 2005/02/06,19:45,12.1,61,6.4,6.8
 2005/02/06,20:00,12.4,60,6.4,6.7
 2005/02/06,20:15,12.9,60,6.4,6.6
 2005/02/06,20:30,12.9,60,6.2,6.5
 2005/02/06,20:45,12.4,60,6.3,7
 2005/02/06,21:00,12,62,6.3,7
 2005/02/06,21:15,11.8,63,6.3,7.2
 2005/02/06,21:30,11.4,63,6.4,7.2
 2005/02/06,21:45,11.3,64,6.3,7.2
 2005/02/06,22:00,11.1,63,6.3,7.3
 2005/02/06,22:15,11,61,6.3,7.3
 2005/02/06,22:30,10.8,62,6.2,7.2
 2005/02/06,22:45,10.7,62,6.3,7.1
 2005/02/06,23:00,10.7,63,6.3,7
 2005/02/06,23:15,10.6,63,6.2,7
 2005/02/06,23:30,10.5,63,6.2,6.9
 2005/02/06,23:45,10.3,63,6.1,6.8
 2005/02/07, 0:00,10.5,63,6.1,6.8
 2005/02/07, 0:15,10.7,62,6.2,6.9
 2005/02/07, 0:30,10.4,62,6.1,6.9
 2005/02/07, 0:45,10.4,62,6.2,6.9
 2005/02/07, 1:00,10.4,61,6,6.9
 2005/02/07, 1:15,10.1,62,6.1,6.9
 2005/02/07, 1:30,9.8,62,5.9,6.9
 2005/02/07, 1:45,9.6,63,5.9,6.9
 2005/02/07, 2:00,9.5,63,6,6.9
 2005/02/07, 2:15,9.2,63,5.9,6.9
 2005/02/07, 2:30,9,63,5.9,6.8
 2005/02/07, 2:45,9,63,5.9,6.8
 2005/02/07, 3:00,8.9,63,5.8,6.8
 2005/02/07, 3:15,8.7,63,5.8,6.8
 2005/02/07, 3:30,8.6,63,5.8,6.8
 2005/02/07, 3:45,8.6,63,5.7,6.8
 2005/02/07, 4:00,8.5,63,5.7,6.7
 2005/02/07, 4:15,8.3,63,5.7,6.7
 2005/02/07, 4:30,8.3,63,5.6,6.7
 2005/02/07, 4:45,8.2,63,5.6,6.7
 2005/02/07, 5:00,8.1,63,5.6,6.6
 2005/02/07, 5:15,8,62,5.6,6.6
 2005/02/07, 5:30,8.1,63,5.6,6.6
 2005/02/07, 5:45,8,62,5.5,6.5
 2005/02/07, 6:00,7.9,63,5.4,6.5
 2005/02/07, 6:15,7.8,63,5.4,6.5
 2005/02/07, 6:30,7.8,63,5.3,6.4
 2005/02/07, 6:45,7.7,63,5.3,6.4
 2005/02/07, 7:00,7.6,62,5.2,6.3
 2005/02/07, 7:15,7.6,62,5.2,6.2
 2005/02/07, 7:30,7.8,63,5.1,6
 2005/02/07, 7:45,8.4,68,5,5.7
 2005/02/07, 8:00,9.1,66,4.6,5.4
 2005/02/07, 8:15,9.8,63,5.1,5.3
 2005/02/07, 8:30,9.5,63,5.3,6.1
 2005/02/07, 8:45,9.8,62,5.4,6.4
 2005/02/07, 9:00,9.7,61,5.7,6.7
 2005/02/07, 9:15,9.7,58,6.6,6.9
 2005/02/07, 9:30,8.3,54,5.9,6.8
 2005/02/07, 9:45,8.2,54,6.2,6.6
 2005/02/07,10:00,8.1,53,6.1,6.5
 2005/02/07,10:15,7.8,52,6.2,6.5
 2005/02/07,10:30,7.9,52,6.4,6.5
 2005/02/07,10:45,7.8,51,6.5,6.5
 2005/02/07,11:00,8.1,56,6.5,6.6
 2005/02/07,11:15,7.8,51,6.7,6.6
 2005/02/07,11:30,7.8,52,6.7,6.7
 2005/02/07,11:45,8.7,49,6.7,6.7
 2005/02/07,12:00,8.2,50,6.8,6.9
 2005/02/07,12:15,8.2,52,6.9,7.1
 2005/02/07,12:30,8.4,51,6.9,7.2
 2005/02/07,12:45,8.5,51,6.8,7.3
 2005/02/07,13:00,8.7,52,6.8,7.4
 2005/02/07,13:15,8.4,50,6.9,7.4
 2005/02/07,13:30,8.7,51,6.9,7.5
 2005/02/07,13:45,10.7,47,6.9,7.5
 2005/02/07,14:00,15.7,38,6.9,7.5
 2005/02/07,14:15,17.9,38,6.9,7.6
 2005/02/07,14:30,18.9,38,6.9,7.6
 2005/02/07,14:45,19.5,36,6.9,7.7
 2005/02/07,15:00,17.2,42,7,7.8
 2005/02/07,15:15,16.7,43,7.1,7.8
 2005/02/07,15:30,14.5,53,7,7.6
 2005/02/07,15:45,18.7,41,6.6,7.5
 2005/02/07,16:00,19.9,39,6.8,7.6
 2005/02/07,16:15,20.5,40,6.8,7.6
 2005/02/07,16:30,20.6,41,6.9,7.5
 2005/02/07,16:45,20.6,40,6.8,7.7
 2005/02/07,17:00,19,43,6.8,7.7
 2005/02/07,17:15,17.2,48,6.8,7.8
 2005/02/07,17:30,16.3,49,6.6,8
 2005/02/07,17:45,15.2,51,6.6,8.3
 2005/02/07,18:00,14.3,54,6.6,8.2
 2005/02/07,18:15,13.7,54,6.6,8.1
 2005/02/07,18:30,13.8,56,6.7,8.2
 2005/02/07,18:45,14,56,6.5,8.2
 2005/02/07,19:00,14.4,56,6.6,8.2
 2005/02/07,19:15,13.9,56,6.7,8.2
 2005/02/07,19:30,13.3,58,6.6,8.2
 2005/02/07,19:45,12.8,58,6.6,8.1
 2005/02/07,20:00,12.5,59,6.6,8.1
 2005/02/07,20:15,12.1,59,6.8,8.1
 2005/02/07,20:30,12,58,6.7,8
 2005/02/07,20:45,11.9,59,6.5,8
 2005/02/07,21:00,11.7,60,6.5,7.9
 2005/02/07,21:15,11.8,60,6.5,7.9
 2005/02/07,21:30,11.7,61,6.5,7.8
 2005/02/07,21:45,11.7,61,6.5,7.8
 2005/02/07,22:00,11.8,60,6.6,7.9
 2005/02/07,22:15,11.7,61,6.5,7.9
 2005/02/07,22:30,11.6,61,6.5,7.8
 2005/02/07,22:45,11.6,61,6.4,7.8
 2005/02/07,23:00,11.6,61,6.5,7.7
 2005/02/07,23:15,11.4,62,6.4,7.7
 2005/02/07,23:30,11.4,62,6.5,7.7
 2005/02/07,23:45,11.3,62,6.3,7.7
 2005/02/08, 0:00,11.4,61,6.3,7.7
 2005/02/08, 0:15,11,61,6.3,7.7
 2005/02/08, 0:30,10.8,62,6.4,7.6
 2005/02/08, 0:45,10.6,62,6.2,7.6
 2005/02/08, 1:00,10.4,62,6.2,7.6
 2005/02/08, 1:15,10.2,62,6.3,7.6
 2005/02/08, 1:30,10.1,62,6.2,7.6
 2005/02/08, 1:45,10,63,6.2,7.5
 2005/02/08, 2:00,9.9,63,6.2,7.5
 2005/02/08, 2:15,9.9,63,6.2,7.5
 2005/02/08, 2:30,9.7,63,6.2,7.5
 2005/02/08, 2:45,9.6,63,6.2,7.5
 2005/02/08, 3:00,9.6,63,6.1,7.5
 2005/02/08, 3:15,9.5,63,6.2,7.5
 2005/02/08, 3:30,9.4,63,6.2,7.4
 2005/02/08, 3:45,9.3,64,6.1,7.4
 2005/02/08, 4:00,9.2,64,6,7.4
 2005/02/08, 4:15,9.1,64,6,7.4
 2005/02/08, 4:30,9.1,64,6.1,7.3
 2005/02/08, 4:45,9.1,64,5.9,7.3
 2005/02/08, 5:00,9,64,6,7.3
 2005/02/08, 5:15,8.9,64,6,7.3
 2005/02/08, 5:30,8.8,64,6,7.3
 2005/02/08, 5:45,8.9,64,6,7.3
 2005/02/08, 6:00,8.7,64,5.9,7.3
 2005/02/08, 6:15,8.7,64,6,7.3
 2005/02/08, 6:30,8.7,64,5.8,7.3
 2005/02/08, 6:45,8.6,64,5.8,7.3
 2005/02/08, 7:00,8.6,64,5.9,7.2
 2005/02/08, 7:15,8.6,64,5.8,7.2
 2005/02/08, 7:30,8.5,65,5.9,7.2